TimePST,TemperatureF,Dew PointF,Humidity,Sea Level PressureIn,VisibilityMPH,Wind Direction,Wind SpeedMPH,Gust SpeedMPH,PrecipitationIn,Events,Conditions,WindDirDegrees,DateUTC
12:15 AM,46.4,46.4,100,30.52,1.5,WSW,5.8,-,N/A,,Overcast,250,2013-02-13 08:15:00
12:35 AM,46.4,46.4,100,30.52,1.8,SW,5.8,-,N/A,,Overcast,230,2013-02-13 08:35:00
12:55 AM,46.4,46.4,100,30.51,2.5,SW,8.1,-,N/A,,Overcast,220,2013-02-13 08:55:00
1:15 AM,46.4,46.4,100,30.51,2.5,SW,8.1,-,N/A,,Overcast,220,2013-02-13 09:15:00
1:35 AM,46.4,46.4,100,30.51,4.0,WSW,5.8,-,N/A,,Overcast,240,2013-02-13 09:35:00
1:55 AM,46.4,46.4,100,30.51,4.0,WSW,4.6,-,N/A,,Overcast,240,2013-02-13 09:55:00
2:15 AM,46.4,46.4,100,30.51,7.0,WSW,6.9,-,N/A,,Overcast,250,2013-02-13 10:15:00
2:35 AM,46.4,46.4,100,30.50,5.0,WSW,5.8,-,N/A,,Overcast,240,2013-02-13 10:35:00
2:55 AM,46.4,46.4,100,30.50,5.0,WSW,6.9,-,N/A,,Overcast,240,2013-02-13 10:55:00
3:15 AM,46.4,46.4,100,30.50,1.5,West,5.8,-,N/A,,Light Drizzle,260,2013-02-13 11:15:00
3:35 AM,46.4,46.4,100,30.50,1.8,West,3.5,-,N/A,Rain,Rain,280,2013-02-13 11:35:00
3:55 AM,46.4,46.4,100,30.50,4.0,Calm,Calm,-,N/A,,Drizzle,0,2013-02-13 11:55:00
4:15 AM,46.4,46.4,100,30.50,5.0,WSW,4.6,-,N/A,,Light Drizzle,240,2013-02-13 12:15:00
4:35 AM,46.4,46.4,100,30.50,4.0,SW,4.6,-,N/A,,Overcast,220,2013-02-13 12:35:00
4:55 AM,46.4,46.4,100,30.50,4.0,SW,5.8,-,N/A,,Overcast,220,2013-02-13 12:55:00
5:15 AM,46.4,46.4,100,30.50,3.0,SW,6.9,-,N/A,,Overcast,230,2013-02-13 13:15:00
5:35 AM,46.4,46.4,100,30.50,2.5,SW,6.9,-,N/A,,Overcast,220,2013-02-13 13:35:00
5:55 AM,46.4,46.4,100,30.50,3.0,SW,5.8,-,N/A,,Overcast,230,2013-02-13 13:55:00
6:15 AM,46.4,46.4,100,30.49,2.5,SW,8.1,-,N/A,,Overcast,220,2013-02-13 14:15:00
6:35 AM,46.4,44.6,93,30.49,2.0,SW,6.9,-,N/A,,Light Drizzle,220,2013-02-13 14:35:00
6:55 AM,46.4,44.6,93,30.50,1.5,SW,8.1,-,N/A,,Drizzle,220,2013-02-13 14:55:00
7:15 AM,46.4,46.4,100,30.50,1.2,SSW,8.1,-,N/A,,Drizzle,210,2013-02-13 15:15:00
7:35 AM,46.4,46.4,100,30.50,0.8,SSW,6.9,-,0.01,,Drizzle,210,2013-02-13 15:35:00
7:55 AM,46.4,46.4,100,30.50,1.0,SSW,8.1,-,0.02,,Drizzle,200,2013-02-13 15:55:00
8:15 AM,46.4,46.4,100,30.51,1.0,SSW,10.4,-,0.01,,Drizzle,200,2013-02-13 16:15:00
8:35 AM,46.4,46.4,100,30.52,0.8,SW,4.6,-,0.02,,Heavy Drizzle,220,2013-02-13 16:35:00
8:55 AM,46.4,46.4,100,30.51,0.5,NW,4.6,-,0.03,Fog,Fog,310,2013-02-13 16:55:00
9:15 AM,46.4,46.4,100,30.52,0.5,NW,4.6,-,N/A,Fog,Fog,310,2013-02-13 17:15:00
9:35 AM,46.4,46.4,100,30.52,0.8,NW,5.8,-,N/A,,Overcast,310,2013-02-13 17:35:00
9:55 AM,46.4,46.4,100,30.53,2.5,NW,4.6,-,N/A,,Overcast,310,2013-02-13 17:55:00
10:15 AM,46.4,46.4,100,30.53,0.8,WNW,4.6,-,N/A,,Overcast,300,2013-02-13 18:15:00
10:35 AM,46.4,46.4,100,30.54,0.8,NNW,4.6,-,N/A,,Overcast,330,2013-02-13 18:35:00
10:55 AM,46.4,46.4,100,30.54,0.8,NNW,5.8,-,N/A,,Overcast,330,2013-02-13 18:55:00
11:15 AM,46.4,46.4,100,30.54,1.2,NNW,5.8,-,N/A,,Overcast,340,2013-02-13 19:15:00
11:35 AM,46.4,46.4,100,-9999,1.8,NNW,8.1,-,N/A,,Overcast,340,2013-02-13 19:35:00
11:55 AM,46.4,46.4,100,30.54,7.0,NNW,3.5,-,N/A,,Light Drizzle,330,2013-02-13 19:55:00
12:15 PM,46.4,46.4,100,30.53,4.0,NW,3.5,-,N/A,,Overcast,320,2013-02-13 20:15:00
12:35 PM,46.4,46.4,100,30.52,5.0,Calm,Calm,-,N/A,,Overcast,0,2013-02-13 20:35:00
12:55 PM,46.4,46.4,100,30.52,7.0,NW,3.5,-,N/A,,Overcast,310,2013-02-13 20:55:00
1:15 PM,46.4,46.4,100,30.52,10.0,WNW,4.6,-,N/A,,Overcast,300,2013-02-13 21:15:00
1:35 PM,46.4,44.6,93,30.52,10.0,West,4.6,-,N/A,,Overcast,280,2013-02-13 21:35:00
1:55 PM,46.4,44.6,93,30.51,7.0,WNW,3.5,-,N/A,,Overcast,290,2013-02-13 21:55:00
2:15 PM,48.2,44.6,87,30.51,10.0,NW,4.6,-,N/A,,Overcast,310,2013-02-13 22:15:00
2:35 PM,48.2,44.6,87,30.51,10.0,WNW,4.6,-,N/A,,Overcast,300,2013-02-13 22:35:00
2:55 PM,48.2,44.6,87,30.51,10.0,NW,4.6,-,N/A,,Overcast,310,2013-02-13 22:55:00
3:15 PM,48.2,44.6,87,30.51,7.0,WNW,5.8,-,N/A,,Overcast,290,2013-02-13 23:15:00
3:35 PM,46.4,44.6,93,30.51,7.0,WNW,4.6,-,N/A,,Overcast,290,2013-02-13 23:35:00
3:55 PM,48.2,44.6,87,30.51,10.0,West,3.5,-,N/A,,Overcast,280,2013-02-13 23:55:00
4:15 PM,46.4,44.6,93,30.51,7.0,West,3.5,-,N/A,,Overcast,280,2013-02-14 00:15:00
4:35 PM,46.4,44.6,93,30.51,7.0,Calm,Calm,-,N/A,,Mostly Cloudy,0,2013-02-14 00:35:00
4:55 PM,46.4,42.8,87,30.50,7.0,Calm,Calm,-,N/A,,Scattered Clouds,0,2013-02-14 00:55:00
5:15 PM,46.4,42.8,87,30.50,4.0,Calm,Calm,-,N/A,,Clear,0,2013-02-14 01:15:00
5:35 PM,44.6,42.8,93,30.52,3.0,Calm,Calm,-,N/A,,Scattered Clouds,0,2013-02-14 01:35:00
5:55 PM,44.6,42.8,93,30.52,5.0,Calm,Calm,-,N/A,,Mostly Cloudy,0,2013-02-14 01:55:00
6:15 PM,44.6,42.8,93,30.52,7.0,Calm,Calm,-,N/A,,Overcast,0,2013-02-14 02:15:00
6:35 PM,44.6,42.8,93,30.53,7.0,Calm,Calm,-,N/A,,Overcast,0,2013-02-14 02:35:00
6:55 PM,44.6,42.8,93,30.52,7.0,Calm,Calm,-,N/A,,Overcast,0,2013-02-14 02:55:00
7:15 PM,44.6,42.8,93,30.52,7.0,Calm,Calm,-,N/A,,Overcast,0,2013-02-14 03:15:00
7:35 PM,44.6,42.8,93,30.53,7.0,Calm,Calm,-,N/A,,Overcast,0,2013-02-14 03:35:00
7:55 PM,44.6,42.8,93,30.53,7.0,East,3.5,-,N/A,,Overcast,90,2013-02-14 03:55:00
8:15 PM,44.6,42.8,93,30.53,10.0,Calm,Calm,-,N/A,,Overcast,0,2013-02-14 04:15:00
8:35 PM,44.6,44.6,100,30.53,10.0,Calm,Calm,-,N/A,,Overcast,0,2013-02-14 04:35:00
8:55 PM,44.6,42.8,93,30.53,10.0,Calm,Calm,-,N/A,,Overcast,0,2013-02-14 04:55:00
9:15 PM,44.6,44.6,100,30.54,10.0,Calm,Calm,-,N/A,,Overcast,0,2013-02-14 05:15:00
9:35 PM,44.6,42.8,93,30.54,10.0,Calm,Calm,-,N/A,,Overcast,0,2013-02-14 05:35:00
9:55 PM,44.6,42.8,93,30.54,10.0,Calm,Calm,-,N/A,,Overcast,0,2013-02-14 05:55:00
10:15 PM,42.8,42.8,100,30.54,10.0,Calm,Calm,-,N/A,,Overcast,0,2013-02-14 06:15:00
10:35 PM,42.8,42.8,100,-9999,10.0,East,4.6,-,N/A,,Overcast,90,2013-02-14 06:35:00
10:55 PM,44.6,42.8,93,30.55,10.0,East,3.5,-,N/A,,Overcast,100,2013-02-14 06:55:00
11:15 PM,44.6,42.8,93,30.55,10.0,East,3.5,-,N/A,,Overcast,100,2013-02-14 07:15:00
11:35 PM,44.6,42.8,93,30.55,10.0,East,3.5,-,N/A,,Overcast,80,2013-02-14 07:35:00
11:55 PM,44.6,42.8,93,30.56,10.0,Calm,Calm,-,N/A,,Overcast,0,2013-02-14 07:55:00